Location: Limerick
(52.6800°N, 8.6400°W)
Time: 12:45:19
(UTC+00:00)

Sapphire - Visible Passes

Search period start: 13 February 2016 00:00
Search period end: 23 February 2016 00:00
Orbit: 785 x 797 km, 67.1° (Epoch: 12 February)

Date Brightness Start Highest point End Pass type
(mag) Time Alt. Az. Time Alt. Az. Time Alt. Az.
13 Feb ? 19:08:21 10° NW 19:13:49 85° SW 19:19:17 10° SE visible
13 Feb ? 20:52:53 10° WNW 20:56:30 18° WSW 21:00:06 10° SSW visible
14 Feb ? 18:37:43 10° NW 18:43:12 78° NE 18:48:39 10° SE visible
14 Feb ? 20:21:51 10° WNW 20:26:06 24° WSW 20:30:20 10° SSW visible
15 Feb ? 19:50:57 10° NW 19:55:39 30° WSW 20:00:20 10° S visible
16 Feb ? 19:20:09 10° NW 19:25:11 39° WSW 19:30:11 10° S visible
17 Feb ? 18:49:24 10° NW 18:54:40 50° WSW 18:59:53 10° SSE visible
18 Feb ? 18:18:43 10° NW 18:24:07 64° WSW 18:29:29 10° SSE visible
18 Feb ? 20:04:14 10° WNW 20:06:30 13° WSW 20:08:47 10° SW visible
19 Feb ? 19:32:45 10° WNW 19:36:09 17° WSW 19:39:32 10° SW visible
20 Feb ? 19:01:39 10° WNW 19:05:45 22° WSW 19:09:50 10° SSW visible
21 Feb ? 18:30:43 10° NW 18:35:19 28° WSW 18:39:54 10° S visible
